St. David's, Bermuda

11:27 PM ADT on October 22, 2019 (GMT -0300)
Bermuda International

Weather History for TXKF - September, 2019

Change the Weather History Date:

Saturday, September 21, 2019

  Actual Average Record
Temperature  
Mean Temperature 76 °F -  
Max Temperature 80 °F 78 °F 87 °F (2015)
Min Temperature 73 °F 71 °F 73 °F (1999)
Cooling Degree Days 12    
Growing Degree Days 26 (Base 50)    
Moisture  
Dew Point 60 °F    
Average Humidity 56    
Maximum Humidity 69    
Minimum Humidity 40    
Precipitation  
Precipitation 0.00 in - - ()
Sea Level Pressure  
Sea Level Pressure 30.20 in    
Wind  
Wind Speed 10 mph ()    
Max Wind Speed 15 mph    
Max Gust Speed -    
Visibility 6.9 miles    
Events      
Averages and records for this station are not official NWS values.
T = Trace of Precipitation, MM = Missing Value Source: Averaged Metar Reports

Daily Weather History Graph

Daily Weather History Graph

Search for Another Location

Airport or City:

Astronomy

Sep. 21, 2019 Rise Set
Actual Time 7:06 AM ADT 7:17 PM ADT
Civil Twilight 6:41 AM ADT 7:41 PM ADT
Nautical Twilight 6:12 AM ADT 8:10 PM ADT
Astronomical Twilight 5:44 AM ADT 8:39 PM ADT
Moon No Moon Rise 1:46 PM ADT (9/21)
Length of Visible Light 12h 59m
Length of Day
12h 10m
Waning Gibbous, 55% of the Moon is Illuminated
Sep 21
Waning Gibbous
Sep 21
Last Quarter
Sep 28
New
Oct 5
First Quarter
Oct 13
Full

Hourly Weather History & Observations

Time (ADT) Temp. Dew Point Humidity Pressure Visibility Wind Dir Wind Speed Gust Speed Precip Events Conditions
12:00 AM 73 °F 60 °F 54% 30.19 in 9 mi East 9.2 mph - -   Scattered Clouds
12:55 AM 73.4 °F 59.0 °F 61% 30.18 in 6.2 mi North 11.5 mph - N/A   Mostly Cloudy
1:55 AM 73.4 °F 59.0 °F 61% 30.18 in 6.2 mi North 13.8 mph - N/A   Mostly Cloudy
2:55 AM 73.4 °F 57.2 °F 57% 30.18 in 6.2 mi North 12.7 mph - N/A   Mostly Cloudy
3:00 AM 74 °F 58 °F 47% 30.19 in 9 mi North 12.7 mph - -   Scattered Clouds
3:55 AM 73.4 °F 59.0 °F 61% 30.18 in 6.2 mi North 15.0 mph - N/A   Mostly Cloudy
4:55 AM 73.4 °F 59.0 °F 61% 30.18 in 6.2 mi North 11.5 mph - N/A   Mostly Cloudy
5:55 AM 73.4 °F 59.0 °F 61% 30.18 in 6.2 mi North 12.7 mph - N/A   Mostly Cloudy
6:00 AM 73 °F 59 °F 53% 30.20 in 9 mi North 12.7 mph - -   Scattered Clouds
6:55 AM 73.4 °F 59.0 °F 61% 30.18 in 6.2 mi NNE 12.7 mph - N/A   Mostly Cloudy
7:55 AM 73.4 °F 59.0 °F 61% 30.21 in 6.2 mi NNE 10.4 mph - N/A   Mostly Cloudy
8:55 AM 75.2 °F 60.8 °F 61% 30.24 in 6.2 mi NNE 9.2 mph - N/A   Mostly Cloudy
9:00 AM 75 °F 60 °F 51% 30.24 in 9 mi NNE 9.2 mph - -   Partly Cloudy
9:55 AM 77.0 °F 59.0 °F 54% 30.24 in 6.2 mi NNE 11.5 mph - N/A   Mostly Cloudy
10:55 AM 78.8 °F 59.0 °F 51% 30.24 in 6.2 mi NNE 10.4 mph - N/A   Mostly Cloudy
11:55 AM 78.8 °F 59.0 °F 51% 30.24 in 6.2 mi NE 11.5 mph - N/A   Mostly Cloudy
12:00 PM 78 °F 58 °F 40% 30.24 in 9 mi NE 11.5 mph - -   Partly Cloudy
12:55 PM 78.8 °F 59.0 °F 51% 30.21 in 6.2 mi NNE 10.4 mph - N/A   Scattered Clouds
1:55 PM 78.8 °F 59.0 °F 51% 30.21 in 6.2 mi NNE 10.4 mph - N/A   Scattered Clouds
2:55 PM 78.8 °F 59.0 °F 51% 30.18 in 6.2 mi NE 10.4 mph - N/A   Scattered Clouds
3:00 PM 79 °F 60 °F 41% 30.21 in 9 mi NE 10.4 mph - -   Scattered Clouds
3:55 PM 77.0 °F 60.8 °F 57% 30.18 in 6.2 mi ENE 9.2 mph - N/A   Mostly Cloudy
4:55 PM 77.0 °F 59.0 °F 54% 30.18 in 6.2 mi ENE 8.1 mph - N/A   Mostly Cloudy
5:55 PM 77.0 °F 59.0 °F 54% 30.18 in 6.2 mi ENE 8.1 mph - N/A   Scattered Clouds
6:00 PM 77 °F 59 °F 43% 30.20 in 9 mi ENE 8.1 mph - -   Scattered Clouds
6:55 PM 75.2 °F 59.0 °F 57% 30.18 in 6.2 mi ENE 8.1 mph - N/A   Mostly Cloudy
7:55 PM 75.2 °F 60.8 °F 61% 30.21 in 6.2 mi NE 6.9 mph - N/A   Mostly Cloudy
8:55 PM 75.2 °F 60.8 °F 61% 30.21 in 6.2 mi NE 6.9 mph - N/A   Scattered Clouds
9:00 PM 74 °F 62 °F 56% 30.22 in 9 mi NE 6.9 mph - -   Scattered Clouds
9:55 PM 75.2 °F 62.6 °F 65% 30.21 in 6.2 mi NE 8.1 mph - N/A   Scattered Clouds
10:55 PM 75.2 °F 62.6 °F 65% 30.21 in 6.2 mi ENE 6.9 mph - N/A   Scattered Clouds
11:55 PM 73.4 °F 62.6 °F 69% 30.21 in 6.2 mi ENE 6.9 mph - N/A   Mostly Cloudy